AirNav   ProFlight Series 2 Aviation Headset
 
 1168 users online  

11Y Flying Feathers Airport
Chilton, Wisconsin, USA

GOING TO CHILTON?


FAA INFORMATION EFFECTIVE 08 OCTOBER 2020

Location

FAA Identifier: 11Y
Lat/Long: 44-03-40.2600N 088-11-41.7600W
44-03.671000N 088-11.696000W
44.0611833,-88.1949333
(estimated)
Elevation: 940 ft. / 287 m (estimated)
From city: 2 miles NW of CHILTON, WI
Time zone: UTC -5 (UTC -6 during Standard Time)
Zip code: 53014

Airport Operations

Airport use: Open to the public
Activation date: 06/2009
Control tower: no
ARTCC: CHICAGO CENTER
FSS: GREEN BAY FLIGHT SERVICE STATION
NOTAMs facility: GRB (NOTAM-D service available)
Attendance: UNATNDD
Wind indicator: yes
Segmented circle: no

Airport Communications

CTAF: 122.9
WX ASOS at OSH (16 nm W): PHONE 920-426-1644
WX AWOS-3 at ATW (18 nm NW): PHONE 920-832-2597

Nearby radio navigation aids

VOR radial/distance  VOR name  Freq  Var
OSHr073/16.1OSHKOSH VORTAC116.7502E
FAHr322/23.1FALLS VOR/DME110.0002W
GRBr179/29.6GREEN BAY VORTAC115.5001E
BJBr356/(38.5)WEST BEND VOR109.8001W

 
NDB name  Hdg/Dist  Freq  Var  ID
KOOKY139/12.840702WAQ .- --.-

Airport Services

Airframe service: NONE
Powerplant service: NONE
Bottled oxygen: NONE
Bulk oxygen: NONE

Runway Information

Runway 18/36

Dimensions: 1000 x 60 ft. / 305 x 18 m
Surface: turf, in fair condition
Runway edge markings: RWY 18/36 MKD WITH ORANGE HALF BARRELS.
RUNWAY 18  RUNWAY 36
Traffic pattern: leftleft
Obstructions: none75 ft. trees, 750 ft. from runway, 100 ft. left of centerline, 10:1 slope to clear

Runway 9/27

Dimensions: 500 x 20 ft. / 152 x 6 m
Surface: turf, in fair condition
Runway edge markings: RWY 9/27 MKD WITH ORANGE HALF BARRELS.
RUNWAY 9  RUNWAY 27
Traffic pattern: leftleft
Runway end identifier lights: nono
Obstructions: 66 ft. tree, 1320 ft. from runway, 180 ft. left of centerline, 20:1 slope to clear25 ft. pline, 640 ft. from runway, 25:1 slope to clear

Airport Ownership and Management from official FAA records

Ownership: Privately-owned
Owner: DEAN HEIMERMANN
W3124 HICKORY HILLS RD
CHILTON, WI 53014
Phone (920) 849-2199
Manager: DEAN HEIMERMANN
W3124 HICKORY HILLS RD
CHILTON, WI 53014
Phone 920-849-2199

Airport Operational Statistics

Aircraft based on the field: 4
Single engine airplanes: 3
Multi engine airplanes: 1
    
Aircraft operations: avg 84/month *
99% local general aviation
1% transient general aviation
* for 12-month period ending 09 September 2019

Additional Remarks

FOR CD CTC CHICAGO ARTCC AT 630-906-8921.

Instrument Procedures

There are no published instrument procedures at 11Y.

Some nearby airports with instrument procedures:

8D1 - New Holstein Municipal Airport (8 nm SE)
KOSH - Wittman Regional Airport (16 nm W)
KATW - Appleton International Airport (18 nm NW)
KFLD - Fond Du Lac County Airport (22 nm SW)
KMTW - Manitowoc County Airport (23 nm E)
 
Loc | Ops | Rwys | IFR | FBO | Links
Com | Nav | Svcs | Stats | Notes
Aerial photo
No photo
 
Sectional chart

 
Airport distance calculator
Flying to Flying Feathers Airport? Find the distance to fly.

From to 11Y

Sunrise and sunset
Times for 27-Oct-2020
 Local
(UTC-5)
 Zulu
(UTC)
Morning civil twilight06:5511:55
Sunrise07:2512:25
Sunset17:4822:48
Evening civil twilight18:1823:18

Current date and time
Zulu (UTC)  27-Oct-2020 23:30:07
Local (UTC-5)  27-Oct-2020 18:30:07
 
METAR
KOSH 
16nm W 
272253Z 21005KT 10SM CLR 02/M07 A3008 RMK AO2 SLP199 T00171072
KATW 
18nm NW 
272245Z 22007KT 10SM SCT120 01/M13 A3007
KFLD 
22nm SW 
272253Z AUTO 22005KT 10SM CLR 03/M07 A3009 RMK AO2 SLP201 T00281067
KSBM 
22nm SE 
272253Z AUTO 23007KT 10SM CLR 03/M06 A3010 RMK AO2 SLP202 T00281056
KMTW 
23nm E 
272256Z AUTO 22005KT 10SM CLR 02/M06 A3010 RMK AO2 SLP200 T00171056 FZRANO
KGRB 
25nm N 
272253Z AUTO 23007KT 10SM CLR 02/M08 A3008 RMK AO2 SLP195 T00171078
TAF
KATW 
18nm NW 
271722Z 2718/2818 24010G17KT P6SM SCT150 FM272300 22008KT P6SM BKN150 FM280600 22010G16KT P6SM SCT100 WS020/25040KT FM281300 24011G17KT P6SM BKN100
NOTAMs
Click for the latest NOTAMs
NOTAMs are issued by the DoD/FAA and will open in a separate window not controlled by AirNav.

 

 
 

Would you like to see your business listed on this page?

 If your business provides an interesting product or service to pilots, flight crews, aircraft, or users of the Flying Feathers Airport, you should consider listing it here.  To start the listing process, click on the button below
 
Add a business
 

Other Pages about Flying Feathers Airport

Update a link
 
Copyright © AirNav, LLC. All rights reserved. Privacy Policy  Contact